Theta_e
311 311 311 310 308 308 307 304 301 300 301 300 301 301 301 301 301 301 301 301 301 301 301 302 303 304 305 305 305 306 306 308 310 312 317 321 316 317 317 318 320 321 322 329 340 349 352 349 348 349 354 356 355 357 356 357 355 356 364 362 355 354 353 355 357 349 339 343 352 354 355 357 357 357 355 354 354 355 354 354 353 351 351 352 353 353 353 353
310 310 311 310 309 309 306 303 301 301 301 301 301 301 301 301 301 302 302 301 301 301 301 302 303 304 305 305 305 306 307 310 314 317 321 319 319 318 317 316 318 322 324 333 342 346 350 349 347 348 353 356 357 356 357 357 354 356 363 360 355 356 354 353 351 349 343 344 352 355 354 355 357 358 355 356 357 355 355 355 353 353 353 353 353 353 353 353
310 310 311 310 308 306 303 303 302 302 302 302 302 301 301 301 302 302 302 301 302 301 302 302 303 304 305 305 307 307 311 316 321 324 322 320 325 323 321 317 316 319 322 331 336 338 345 347 347 347 351 356 357 355 357 358 356 356 358 358 355 352 351 350 347 348 344 344 352 353 353 355 356 355 354 356 357 356 357 356 355 355 355 354 352 352 353 353
310 310 310 308 306 305 305 306 305 304 303 303 303 302 302 302 302 302 302 302 302 301 302 302 304 304 304 306 306 309 315 322 322 318 322 324 326 326 324 318 317 319 319 326 331 334 341 344 345 347 350 355 353 353 355 353 354 354 356 358 355 350 352 350 348 348 344 345 351 352 354 356 355 354 354 356 358 358 356 354 355 355 355 355 353 352 353 353
310 310 309 308 308 308 309 310 308 306 305 305 304 303 303 303 302 302 302 302 302 302 302 303 304 304 305 306 308 313 318 321 316 319 326 323 322 324 322 318 318 318 322 330 335 336 341 343 345 347 350 354 353 353 354 350 349 351 353 355 351 350 351 350 349 347 342 345 351 352 355 355 353 354 353 355 360 360 355 352 352 353 354 354 353 353 353 353
309 309 309 310 310 311 311 311 309 307 306 305 304 304 303 303 303 303 303 302 303 302 303 303 304 305 305 307 312 317 318 313 316 321 324 324 320 321 319 319 319 319 325 335 340 340 344 345 347 350 352 353 355 355 354 348 348 350 350 350 349 350 350 348 348 345 342 346 350 351 353 352 352 354 354 355 357 355 352 351 351 352 353 353 354 353 353 353
309 310 310 310 309 309 308 306 306 305 305 305 304 304 304 304 304 304 303 303 303 303 304 304 304 305 306 312 318 322 324 318 317 318 320 322 319 319 319 318 318 322 329 333 337 340 344 346 349 351 352 354 355 355 353 349 347 350 350 348 348 348 348 348 347 345 341 344 347 349 351 351 352 354 353 353 354 353 351 351 351 352 353 353 353 353 353 353
310 310 308 308 306 305 304 303 304 304 304 305 305 305 305 305 305 305 304 303 304 303 304 304 305 307 307 314 321 323 324 323 317 318 318 316 319 320 319 321 322 324 330 330 331 335 338 342 347 350 352 355 354 353 352 351 348 348 349 348 347 347 346 346 346 345 341 340 344 347 350 351 351 352 352 354 354 353 352 351 351 352 352 353 353 353 354 354
310 309 306 306 305 305 305 304 304 303 304 304 304 305 305 306 305 305 305 304 305 304 306 306 306 308 311 318 323 315 318 319 318 322 319 317 318 320 320 323 324 324 329 330 329 331 333 336 341 346 349 349 350 352 351 351 350 347 347 346 345 345 345 345 344 345 343 339 340 344 350 350 348 350 352 353 354 353 352 352 352 353 353 354 354 354 355 354
310 308 306 305 304 304 304 303 303 303 303 304 304 305 306 306 306 306 306 306 307 306 307 307 308 310 314 322 324 312 316 318 320 324 322 319 317 322 323 322 324 325 329 330 329 328 330 332 333 337 339 338 342 347 348 349 348 345 344 344 345 345 345 344 344 344 343 340 337 341 347 346 346 351 354 355 354 353 353 353 353 353 354 354 354 354 354 354
309 309 307 306 305 304 304 304 304 303 303 304 304 305 306 307 306 307 308 309 310 309 309 308 310 310 314 324 323 311 317 319 319 322 323 321 320 324 325 323 324 327 329 329 328 327 327 327 329 332 334 335 337 340 344 346 344 343 343 342 343 344 345 344 345 343 341 338 334 338 341 341 344 350 354 356 354 354 354 355 354 354 355 354 354 354 354 354
309 309 308 307 306 305 305 305 304 303 303 304 304 305 306 307 308 309 310 311 312 311 310 309 310 311 317 327 325 315 315 318 319 320 320 320 320 324 326 326 325 326 328 328 327 327 326 324 327 334 336 337 337 338 340 339 338 337 336 336 336 340 343 344 345 343 341 339 334 334 335 338 347 349 352 355 353 354 355 355 355 354 355 354 354 354 354 353
309 308 308 306 305 305 305 305 304 303 303 303 304 306 307 308 309 309 311 312 313 312 310 311 313 315 322 327 319 315 314 317 318 316 317 317 318 323 325 327 327 326 326 326 326 325 325 325 327 331 334 336 339 338 337 336 333 331 330 331 330 329 334 341 344 343 343 339 334 333 329 333 348 352 353 355 353 355 356 356 356 355 355 354 354 354 354 354
309 308 307 306 305 304 305 305 304 303 303 303 305 307 308 309 310 313 315 315 313 312 311 314 317 319 326 323 314 315 314 314 314 314 317 316 317 322 325 325 326 327 326 324 324 323 325 326 327 329 330 333 336 336 337 336 332 331 329 327 328 322 324 334 340 343 344 339 335 333 326 329 347 356 355 354 353 356 356 357 356 355 356 354 354 354 354 354
308 307 306 305 305 305 304 304 304 304 304 304 306 308 308 311 316 320 319 316 314 312 313 316 318 323 329 323 315 316 319 318 317 316 316 316 317 321 324 325 326 326 325 325 324 324 326 327 329 330 330 330 333 333 334 332 329 329 323 321 327 322 323 331 334 341 345 338 334 333 328 331 346 356 355 353 353 355 356 356 356 355 355 355 354 354 353 353
307 307 306 305 305 305 304 304 304 304 304 304 307 308 310 316 321 319 316 315 314 314 316 320 320 324 331 320 315 320 324 326 324 321 319 317 317 318 321 324 326 327 326 326 326 326 327 329 330 330 329 328 331 333 331 327 325 328 322 317 321 321 323 327 330 339 343 339 334 333 335 340 352 358 354 354 354 355 356 356 356 355 355 355 354 354 354 354
307 306 306 305 305 304 304 304 304 304 304 306 308 309 315 319 318 316 315 314 315 318 320 322 321 324 328 316 318 322 323 326 325 325 325 321 318 318 319 322 326 327 327 327 327 327 327 328 330 330 329 327 330 331 328 323 321 324 323 319 320 322 322 323 328 337 340 339 334 336 343 344 354 359 354 355 354 354 356 356 356 355 355 355 354 355 355 355
307 306 305 305 305 304 304 304 304 304 304 307 307 312 320 320 318 319 318 318 320 322 324 324 321 323 323 320 322 322 323 324 324 326 329 326 321 319 318 321 325 326 327 328 327 327 326 326 329 330 330 329 330 329 323 322 321 320 321 319 319 322 322 322 325 332 340 340 334 338 342 344 355 359 355 355 354 355 356 355 355 355 355 355 355 355 355 355
306 306 305 305 305 304 304 304 304 304 305 307 307 314 322 320 320 323 322 323 324 323 327 330 324 318 318 323 321 320 321 322 325 326 327 327 322 318 319 321 324 326 326 328 327 325 326 326 327 327 327 328 329 328 324 324 323 322 323 321 319 319 321 324 326 329 339 341 337 339 339 345 357 358 356 355 354 355 355 355 355 354 355 355 355 355 355 355
307 306 305 305 304 304 304 304 304 304 305 306 308 314 317 316 318 321 319 319 318 316 318 324 323 320 320 321 319 321 321 323 327 328 327 327 321 319 321 321 324 326 326 327 326 324 326 327 325 325 327 329 329 327 326 325 324 324 322 321 320 318 319 325 328 328 336 339 338 341 341 347 358 358 357 355 354 356 355 356 356 355 355 354 355 355 355 355
306 306 306 305 304 304 304 304 304 305 306 305 308 313 312 311 313 315 313 312 313 314 313 315 318 320 320 319 319 320 322 323 324 324 324 325 322 321 322 323 325 326 325 326 325 324 326 326 325 327 328 330 329 328 325 324 323 323 320 319 318 318 319 323 327 328 333 338 339 342 342 347 356 357 356 355 355 356 355 356 356 355 355 354 355 355 354 354
306 306 306 305 305 304 303 304 304 306 306 305 308 312 311 309 310 310 310 312 313 313 313 313 314 316 317 318 318 319 320 321 322 321 322 324 323 322 324 322 323 325 325 324 324 324 324 325 326 328 328 329 330 329 327 325 324 322 321 318 315 318 320 322 327 328 329 335 341 345 342 343 354 356 355 355 355 354 354 355 355 355 355 355 354 354 355 354
306 306 306 305 304 303 304 303 304 306 306 305 307 310 310 308 308 308 310 313 314 312 313 312 313 314 315 316 317 319 320 320 321 321 322 324 323 322 323 321 322 325 324 324 324 322 320 323 326 326 327 328 328 328 328 326 325 323 321 317 315 319 318 318 324 329 330 335 344 346 341 342 350 356 355 354 353 353 352 353 353 354 354 354 353 353 354 354
305 305 305 305 304 304 304 303 305 306 304 305 308 309 308 306 307 308 310 315 315 312 313 313 313 313 314 314 316 319 320 320 320 320 321 323 322 321 322 321 322 323 324 324 324 323 322 323 325 325 327 328 326 327 328 326 324 324 323 318 317 320 320 319 324 330 331 334 343 342 333 335 346 354 358 354 352 353 351 353 353 352 353 352 352 352 352 353
305 305 305 305 304 303 303 304 306 305 304 307 309 307 306 306 307 309 311 316 317 314 313 313 312 313 313 314 315 318 319 319 320 320 321 323 322 321 322 322 322 323 323 323 323 323 323 324 325 325 326 327 326 326 326 325 322 322 324 323 321 322 323 324 325 326 322 323 339 339 326 330 343 348 354 354 353 353 350 352 353 351 352 351 351 351 351 352
305 305 305 304 304 303 304 306 305 304 305 308 307 306 306 306 308 310 311 316 320 316 316 316 315 315 314 314 316 317 317 318 319 319 320 323 322 322 323 323 323 323 323 323 323 323 323 324 326 325 325 325 326 325 325 326 321 319 323 326 325 324 323 323 322 321 317 319 337 339 327 330 336 338 348 352 351 354 351 350 351 351 351 350 350 350 350 351
304 305 304 304 304 303 305 307 305 305 308 307 306 306 306 306 309 311 313 319 323 319 318 316 315 317 315 314 315 315 316 317 317 318 319 322 323 322 323 324 323 323 324 324 321 321 324 325 325 326 325 324 324 323 325 327 321 319 325 325 325 325 323 323 321 318 320 324 330 335 332 327 328 333 340 345 349 352 350 350 350 349 349 350 349 348 349 349
304 304 304 304 303 304 305 306 304 305 307 306 306 306 306 308 311 313 315 321 326 322 320 316 315 317 314 313 314 315 317 316 317 318 317 321 323 322 323 323 323 323 324 324 319 321 326 325 324 326 325 324 323 323 326 327 323 323 325 324 325 325 323 324 322 318 321 320 316 324 330 326 333 349 345 339 344 347 347 347 348 349 348 348 348 348 349 348
305 304 304 304 303 304 305 305 305 306 306 306 306 306 308 310 312 315 318 321 323 321 321 317 316 315 313 313 314 315 317 317 319 317 317 320 322 322 323 323 323 323 324 323 321 324 326 325 324 324 324 324 324 325 327 326 325 325 324 325 324 324 324 324 324 319 319 319 314 318 323 320 330 349 346 335 336 339 344 344 344 347 347 346 348 347 348 348
304 304 304 304 303 304 305 305 306 305 306 306 306 308 310 312 314 316 321 323 320 320 321 318 317 315 313 313 313 314 315 316 319 317 316 319 321 322 322 322 322 322 323 324 324 326 326 326 327 326 325 325 325 326 325 324 325 324 324 324 322 322 324 325 328 324 317 316 315 316 321 319 320 332 340 337 334 336 340 341 342 344 344 345 346 345 347 348
304 304 304 304 304 305 305 306 306 306 307 307 308 311 312 314 318 320 322 321 319 322 321 318 317 315 315 314 314 315 314 315 318 317 317 319 320 322 322 322 322 320 320 321 322 324 323 325 327 327 326 326 326 325 324 324 324 324 323 321 318 318 319 318 320 321 314 313 317 318 321 319 315 324 340 341 338 337 336 338 339 341 342 343 343 344 345 346
304 304 304 303 303 305 306 307 307 308 309 308 310 314 312 312 316 317 319 319 319 321 318 316 316 316 317 317 316 317 315 315 317 318 319 320 321 322 322 323 321 318 315 316 318 320 321 322 324 326 327 327 325 323 323 322 322 323 322 318 316 314 314 314 313 315 315 317 325 324 319 318 317 327 346 346 340 338 335 336 337 338 340 341 341 343 343 345
304 304 303 303 303 305 306 307 307 308 309 309 311 316 314 315 317 315 315 317 317 317 315 315 315 315 316 317 318 318 315 315 316 317 320 321 322 323 322 324 323 320 318 316 315 315 317 321 322 322 325 326 326 323 319 319 320 321 318 315 314 313 314 315 314 315 316 318 325 326 322 321 321 331 347 346 340 339 336 336 335 336 338 339 340 341 341 343
304 303 303 303 303 305 306 306 306 307 309 309 313 316 315 316 319 317 314 315 316 315 315 315 315 316 317 318 320 319 315 315 316 317 320 321 322 321 322 323 322 323 325 319 315 315 314 317 322 321 322 325 326 325 322 322 322 320 322 319 314 315 318 316 314 315 316 318 321 322 324 322 321 333 347 343 340 341 337 337 336 336 336 336 338 340 340 341
303 303 303 303 303 306 306 305 305 308 309 311 315 317 315 315 317 317 315 316 316 315 315 315 315 316 317 318 320 318 315 316 316 316 319 321 320 321 322 323 322 323 324 319 316 316 313 315 322 322 323 325 325 325 325 323 320 319 323 319 313 319 322 317 319 322 319 318 319 320 327 333 335 342 348 339 340 342 338 339 339 337 338 336 337 339 339 340
303 303 303 303 304 306 305 304 306 309 311 313 315 316 314 313 315 316 316 316 315 315 315 316 317 316 317 319 318 316 315 317 317 315 316 319 320 322 322 322 322 321 321 320 319 318 312 315 324 323 323 325 324 325 325 321 321 320 317 315 317 323 319 313 316 321 316 314 318 320 323 330 332 336 341 339 340 344 341 341 340 339 340 338 338 338 338 339
303 304 304 304 305 305 305 304 306 309 312 314 316 316 314 313 315 316 316 315 315 315 316 318 319 316 316 317 316 316 317 316 316 314 314 316 317 320 321 321 322 321 322 322 321 322 316 315 324 324 322 324 323 324 324 323 324 320 314 315 320 320 319 319 314 312 311 312 317 319 318 319 322 331 346 346 341 343 343 342 341 342 343 341 339 339 338 339
304 304 304 305 305 304 304 305 307 310 313 315 318 319 318 317 317 316 315 315 316 316 316 317 318 316 316 317 316 317 317 316 317 315 316 317 316 318 320 320 320 320 320 320 320 324 320 314 320 325 322 323 324 322 321 323 324 321 319 320 321 315 313 317 316 312 311 311 313 318 320 319 320 329 342 344 342 345 344 343 343 341 343 343 340 340 339 338
304 305 306 306 304 303 305 306 308 311 315 317 318 319 319 317 316 316 315 316 316 317 316 317 317 316 317 317 316 316 316 317 318 316 315 317 316 317 318 318 320 320 320 319 321 324 322 314 315 323 324 322 324 322 316 318 322 322 321 320 322 319 312 314 317 314 314 313 312 315 316 317 325 337 343 343 346 346 342 343 345 341 342 343 341 341 340 339
304 305 307 304 303 304 305 306 310 314 317 318 318 317 316 316 316 317 317 317 316 315 316 316 316 316 316 316 315 315 316 317 318 316 316 316 316 316 316 316 318 319 319 319 319 320 323 317 313 320 325 320 320 322 319 319 321 319 317 315 315 317 315 315 316 315 316 319 319 316 311 315 334 349 350 351 350 345 343 343 342 342 342 342 343 342 342 341
304 306 306 303 303 305 305 308 313 315 317 318 318 316 316 316 317 318 317 316 315 313 314 315 314 314 314 314 315 316 317 318 317 317 317 317 316 316 316 315 315 318 321 323 322 319 319 319 314 315 317 315 318 325 324 323 324 321 318 316 314 315 315 313 312 315 316 318 322 320 310 313 336 346 345 354 352 341 343 342 340 342 342 341 342 342 343 343
304 305 305 303 304 304 305 310 313 312 313 315 314 314 314 314 315 316 315 314 312 312 313 312 313 314 314 315 316 317 318 318 318 318 318 317 317 316 315 314 315 319 323 325 325 325 324 322 316 313 315 318 322 325 325 323 325 325 322 321 319 319 316 310 310 316 316 315 322 322 312 315 339 349 344 352 354 343 341 342 341 341 340 342 343 341 343 344
304 304 304 303 304 304 306 311 311 309 310 310 309 309 310 311 311 311 311 311 311 312 312 312 313 314 314 315 316 316 317 319 319 319 319 318 317 315 314 313 314 318 325 328 329 329 329 325 315 313 318 321 322 324 324 325 325 323 322 324 322 319 318 316 320 324 317 313 318 319 312 315 337 352 344 345 351 347 341 340 342 342 340 342 342 342 344 345
304 304 304 304 304 305 307 309 308 307 307 307 307 308 309 309 309 309 309 309 310 311 311 312 312 313 313 314 314 315 316 319 320 318 317 318 317 315 313 313 314 316 322 329 330 328 329 329 320 314 315 317 319 320 319 320 322 322 323 324 322 323 320 320 327 325 317 314 318 316 311 319 345 357 345 341 346 346 343 340 339 341 341 341 341 343 345 345
304 304 304 304 304 305 306 307 306 306 307 307 307 308 308 308 308 308 308 309 310 310 310 311 311 312 312 313 313 314 314 317 319 317 315 316 316 314 312 313 313 315 321 327 328 324 328 332 324 317 316 315 315 317 320 321 320 320 325 323 323 326 321 317 318 315 315 319 318 315 316 329 349 349 337 340 345 345 349 345 339 340 340 341 342 343 345 346
304 304 304 304 304 305 306 305 305 306 307 307 307 307 307 308 308 308 308 309 309 309 309 310 311 311 312 312 313 313 313 314 315 315 314 315 315 313 313 313 313 315 322 326 323 321 328 335 329 323 323 320 318 322 331 332 320 315 320 321 322 325 322 321 316 312 320 322 316 324 333 329 331 339 339 341 340 337 342 344 342 344 342 341 344 345 346 346
304 304 304 305 305 305 305 305 305 306 307 307 307 307 307 308 308 308 308 308 308 308 309 310 310 311 312 313 313 312 313 313 312 312 313 314 314 312 311 313 314 317 321 320 318 321 327 330 330 327 327 326 324 325 329 327 319 316 319 319 321 324 322 320 314 316 328 321 310 331 348 325 325 350 352 343 342 336 334 336 340 344 344 342 343 345 348 347
305 304 304 305 305 305 306 305 305 305 306 305 306 307 307 307 308 308 308 308 307 308 309 310 309 309 311 312 313 313 313 313 313 313 313 313 313 313 312 312 314 316 316 314 315 319 323 326 328 327 325 324 325 325 325 324 322 321 321 319 320 323 320 317 317 322 330 319 311 332 345 326 329 350 346 344 347 338 335 340 342 341 342 343 341 343 345 345
305 304 304 304 305 305 305 305 305 305 305 305 306 306 306 307 308 308 307 307 307 307 308 310 309 309 309 310 313 315 314 313 313 314 313 312 313 313 312 313 314 313 313 313 315 317 322 330 331 325 324 323 323 326 325 323 321 320 321 322 321 323 321 319 320 324 326 321 320 335 342 332 331 336 334 338 343 336 336 345 347 341 342 347 346 343 342 342
305 305 304 304 304 304 304 304 305 305 305 306 307 306 306 307 307 307 307 306 307 307 308 309 309 309 308 309 311 313 313 313 314 313 313 313 313 313 313 314 313 312 312 313 315 317 322 330 329 323 324 325 323 326 325 323 322 319 320 324 322 321 322 319 321 323 323 322 323 331 335 335 335 338 336 334 336 337 340 349 354 350 348 351 350 345 340 340
304 304 304 304 304 305 305 305 305 305 305 305 306 306 306 307 307 307 307 306 306 307 308 309 310 309 309 309 309 310 311 312 313 313 312 312 312 312 313 313 311 312 313 313 315 317 320 325 326 323 325 326 323 324 325 324 324 318 316 321 322 319 320 320 320 323 322 321 322 323 323 329 336 338 337 336 337 340 345 353 360 362 359 357 357 353 347 342
304 304 304 304 304 305 306 305 305 305 305 305 306 306 306 306 307 307 307 307 306 307 307 308 309 310 310 310 309 309 309 309 310 310 310 311 311 311 311 311 311 312 313 313 316 317 319 322 323 323 326 327 323 322 324 325 323 318 317 320 322 321 321 321 322 326 325 323 322 319 319 327 333 332 332 334 335 337 341 345 352 362 366 362 359 355 350 346
Wind_Speed
21 22 21 21 22 23 23 23 24 24 24 25 25 25 23 23 24 24 25 24 23 23 23 23 23 22 22 22 22 22 22 22 20 13 10 23 32 29 25 19 10 11 16 13 21 21 14 13 14 17 13 7 5 3 7 7 4 3 2 3 4 4 4 5 5 3 4 6 11 13 14 16 13 8 5 6 7 11 10 4 5 4 6 11 16 25 29 30
21 21 22 22 22 23 25 26 27 26 26 27 26 25 24 25 26 26 26 25 24 24 23 23 22 22 21 21 21 21 21 20 17 14 21 25 24 26 27 25 19 13 16 18 23 21 14 12 13 14 9 4 4 4 6 6 6 5 2 3 5 5 4 4 5 3 5 6 10 12 14 15 15 11 8 8 8 10 9 6 7 8 11 13 19 27 28 29
22 22 21 22 24 26 29 29 29 28 28 28 28 26 26 27 27 27 27 26 25 24 24 23 22 21 20 19 19 18 16 14 9 12 19 15 13 18 21 24 25 21 17 16 21 23 18 16 16 11 6 4 4 5 6 5 6 6 4 4 7 7 6 5 5 3 5 8 9 11 10 11 14 12 8 10 12 10 8 10 10 10 13 15 17 23 27 28
22 22 22 24 27 29 30 29 28 29 29 29 28 27 28 29 29 28 27 26 26 25 25 23 20 20 19 17 16 14 11 7 5 8 10 12 13 11 18 23 24 23 18 16 19 22 20 17 14 9 5 5 4 5 7 6 4 4 6 8 7 4 5 7 4 1 4 9 10 10 9 10 12 10 9 14 13 7 7 13 16 17 18 19 18 20 24 24
23 24 24 25 27 28 28 27 28 28 29 29 28 29 31 31 30 29 28 27 26 25 25 23 19 19 18 15 12 10 6 3 5 5 6 11 10 8 21 24 23 22 17 17 17 17 16 14 11 7 5 4 5 5 8 10 5 3 9 12 9 3 6 9 2 4 5 10 11 11 12 11 11 8 12 18 14 10 12 13 15 19 20 22 21 20 20 19
24 25 25 25 27 27 27 27 28 29 30 31 30 32 33 32 31 30 28 27 26 26 24 21 19 17 16 11 5 4 1 2 8 6 5 9 4 13 22 22 22 21 20 19 16 13 11 10 9 8 6 5 6 8 7 7 7 6 8 9 10 7 9 12 4 4 6 10 12 12 12 11 11 8 13 18 11 10 15 14 14 17 20 23 22 20 19 18
26 26 26 27 28 29 30 31 31 31 32 32 33 34 34 34 33 31 29 28 27 25 22 21 18 15 13 6 2 1 2 6 17 14 9 11 7 13 22 21 22 22 22 19 13 9 8 9 11 9 7 5 6 11 8 5 7 9 10 9 9 8 11 14 10 3 6 11 12 10 10 13 14 9 12 11 3 8 14 14 15 15 19 22 20 19 19 19
27 27 28 29 31 32 33 34 34 34 34 34 35 35 35 35 33 32 30 29 27 24 21 20 16 12 8 3 1 1 0 13 22 18 15 15 11 11 22 22 23 25 24 21 15 11 9 10 12 8 7 8 5 7 7 5 8 10 11 11 8 8 11 13 13 7 6 8 8 9 12 17 16 11 12 10 5 12 15 15 16 17 17 18 19 20 18 18
28 28 30 31 33 33 33 35 36 36 36 37 37 36 36 35 33 33 31 30 26 22 20 18 14 7 4 1 1 2 6 13 14 12 10 10 9 13 22 24 26 27 23 23 20 14 10 8 11 9 6 7 6 6 5 5 7 9 11 11 9 11 13 13 13 9 7 7 6 10 14 14 10 9 8 6 9 14 16 17 17 18 18 17 17 19 18 18
29 29 31 33 34 35 35 37 38 38 38 39 39 38 36 35 34 33 32 30 25 21 18 14 9 3 3 2 3 3 8 5 4 7 5 7 10 15 21 23 27 27 19 17 18 13 10 9 10 7 3 3 6 7 5 6 5 5 9 11 13 15 15 13 14 11 6 8 11 14 14 11 8 9 5 5 13 16 17 18 18 19 18 17 17 16 16 17
29 29 31 33 35 37 37 38 39 40 40 41 41 39 37 35 34 32 31 29 25 20 15 10 6 5 5 3 4 6 6 3 1 7 6 4 12 19 22 23 26 27 19 12 14 18 17 13 8 4 4 3 5 6 6 7 5 6 8 10 13 15 16 14 15 13 5 7 14 15 10 8 8 8 8 11 16 18 19 19 19 19 16 17 18 15 13 14
29 29 31 33 36 38 38 40 41 41 42 42 41 40 38 35 32 31 30 28 23 17 11 7 7 9 5 1 8 17 11 6 6 4 6 2 7 17 21 23 26 28 23 12 12 23 24 16 9 7 6 3 3 5 5 5 5 8 7 8 11 9 12 15 15 14 6 6 11 12 6 6 10 10 10 15 17 19 20 19 19 18 15 15 15 14 12 13
29 30 32 35 39 40 40 41 42 43 43 43 43 41 36 33 32 30 28 25 19 11 7 7 9 11 6 2 10 21 18 13 14 15 17 13 8 13 18 21 24 27 26 18 17 26 27 18 11 10 7 3 2 2 5 5 3 6 5 5 6 5 8 11 11 13 9 6 11 11 4 8 11 9 11 16 17 19 18 18 17 15 14 14 13 13 12 14
30 31 33 38 41 42 42 42 44 45 44 45 43 38 34 33 31 26 22 18 12 7 9 9 12 11 4 7 10 12 16 19 21 23 23 16 11 11 14 18 20 23 25 24 22 23 27 22 12 7 5 6 5 5 8 7 3 4 5 4 2 3 7 8 6 8 9 6 14 12 6 8 9 8 14 16 19 21 18 17 17 15 14 13 13 13 13 14
33 33 36 41 42 43 44 44 46 45 46 47 41 34 33 30 23 17 12 7 3 7 12 12 12 8 0 10 13 10 10 14 22 28 27 20 14 10 13 18 21 23 24 23 19 15 20 19 9 4 4 5 5 6 7 5 3 2 4 4 2 3 7 9 5 7 10 6 13 14 6 6 8 9 15 16 18 20 19 18 17 16 15 14 13 13 13 13
36 37 40 43 44 45 44 46 47 45 49 46 35 32 29 19 12 9 5 4 7 12 14 10 10 6 1 6 7 5 6 9 16 22 24 24 21 17 18 18 17 19 21 22 18 11 11 12 5 5 4 4 5 4 4 4 5 2 3 5 4 4 5 7 6 6 12 7 11 14 6 3 5 9 14 15 18 18 16 17 18 17 16 15 13 12 13 12
36 39 42 43 45 46 46 48 46 48 49 39 33 30 17 8 7 9 12 12 12 15 11 5 8 5 5 7 5 4 5 9 13 12 15 22 27 25 17 10 8 12 14 16 14 7 6 7 3 4 4 4 4 4 3 6 6 3 2 4 4 5 4 5 7 5 8 9 10 12 6 4 5 12 16 15 18 17 15 17 18 16 15 14 13 12 13 13
36 40 42 43 45 46 47 48 46 50 46 33 31 23 8 7 7 13 17 14 12 10 6 2 5 2 5 6 4 3 4 6 8 9 11 16 24 28 18 10 6 7 6 5 6 5 5 4 3 3 3 5 5 6 7 7 4 3 4 4 3 4 5 6 6 5 4 9 10 9 5 5 6 13 17 16 18 17 17 18 16 16 15 14 13 13 14 14
38 40 42 44 45 46 49 47 48 50 39 30 30 14 7 7 4 8 9 8 5 2 1 1 6 2 4 6 5 6 9 10 11 10 10 13 18 21 17 11 6 6 6 2 4 7 6 2 4 6 6 8 8 8 10 6 3 5 5 4 4 4 6 7 6 5 3 6 9 10 7 7 9 14 16 16 17 16 15 15 13 14 14 14 13 13 14 15
38 40 41 45 45 47 49 46 49 45 29 31 30 10 5 7 2 1 3 3 5 8 9 7 9 7 10 10 3 5 11 9 7 5 9 16 16 13 9 6 4 5 6 5 5 5 6 5 7 8 8 8 8 7 8 7 7 7 5 4 6 5 8 7 4 6 4 5 9 11 9 9 13 16 17 16 16 14 14 14 14 14 14 14 15 15 16 17
38 38 41 44 45 48 47 46 49 35 21 29 25 6 3 6 3 5 8 10 11 12 15 16 14 15 17 15 6 4 8 5 6 6 8 14 17 13 6 6 6 6 7 8 5 2 5 9 10 8 7 6 7 6 6 6 8 8 6 6 6 5 9 9 4 6 3 3 8 9 8 10 15 17 16 17 17 16 17 17 17 17 16 14 16 17 17 16
37 37 41 43 45 49 46 48 44 24 18 29 19 3 3 7 8 11 8 9 11 12 16 19 17 18 20 24 21 7 3 5 9 12 8 11 13 10 7 8 9 7 7 7 4 3 6 10 10 7 6 6 5 6 6 6 7 7 6 5 7 5 5 9 5 6 4 3 6 6 8 9 13 16 17 19 19 18 18 21 20 20 18 15 16 17 17 15
36 38 42 42 47 49 47 49 36 15 23 32 15 3 6 14 19 18 7 7 10 9 14 17 17 17 17 20 19 11 7 8 8 11 8 14 11 9 10 11 10 7 7 9 8 7 6 8 8 8 6 7 7 6 6 5 5 5 5 4 8 6 2 5 5 3 3 4 5 6 6 4 5 9 13 18 19 16 17 19 18 18 19 20 20 18 18 18
37 41 42 43 48 48 49 46 23 16 34 32 9 4 15 23 25 22 7 5 8 6 11 16 14 13 14 12 12 16 11 7 8 10 9 14 8 7 10 12 11 7 8 12 13 11 8 5 7 10 8 8 9 8 7 6 5 7 7 7 10 8 5 6 4 6 5 4 1 5 3 0 5 9 11 13 14 13 13 15 14 15 17 18 18 18 18 19
40 41 42 46 46 49 52 33 13 25 39 21 3 12 26 28 25 21 7 2 6 5 6 9 7 7 10 10 13 15 7 5 11 11 7 12 10 7 7 8 8 10 11 12 12 11 10 5 7 11 9 9 9 9 8 7 5 8 9 11 13 9 5 5 3 6 5 6 3 5 3 4 7 13 13 11 11 12 11 14 17 16 15 14 14 16 16 17
41 40 43 45 45 52 44 15 13 34 29 9 9 25 31 30 29 20 3 0 6 4 2 3 3 6 9 9 10 10 4 5 12 13 8 10 12 7 5 5 4 9 11 8 6 6 7 7 7 9 10 10 10 10 10 8 5 8 9 9 10 6 5 6 3 2 2 4 5 3 4 5 5 11 14 12 15 18 14 15 18 16 15 15 14 15 16 16
40 40 44 44 46 49 27 9 24 29 12 8 20 31 32 31 31 16 1 2 5 3 4 1 2 8 9 8 12 10 3 3 5 12 13 11 10 6 6 7 4 7 7 5 4 4 7 10 10 10 10 10 11 10 11 9 7 9 5 3 7 5 5 6 4 4 5 4 5 3 4 2 3 9 15 16 17 18 16 16 18 16 16 18 16 16 17 17
40 42 44 44 48 41 18 13 24 17 10 18 26 30 33 32 24 7 2 2 3 2 3 1 2 7 5 7 15 9 4 4 4 7 14 15 11 6 8 10 8 9 9 8 7 4 9 13 14 14 11 9 9 9 9 10 10 10 3 3 8 7 6 5 5 5 5 4 6 5 5 3 5 5 10 16 17 17 17 18 19 19 19 19 18 18 18 18
41 43 43 46 47 37 20 16 18 15 17 22 26 32 33 26 12 2 2 2 2 1 1 2 2 4 4 6 12 7 3 1 0 3 11 13 10 4 6 9 9 9 10 12 10 4 7 13 16 15 11 9 8 8 9 12 12 8 4 6 7 7 6 4 6 5 3 4 8 9 7 5 6 4 6 10 14 16 17 18 19 20 21 19 19 19 19 17
42 43 44 46 44 36 27 22 18 17 19 22 28 31 25 14 2 4 2 4 2 2 1 2 3 1 4 7 7 8 5 4 3 3 8 8 8 3 1 4 7 5 6 9 11 8 3 5 10 11 10 9 7 7 10 14 13 5 3 7 8 7 5 1 3 4 3 6 9 11 9 8 6 5 5 9 13 17 16 15 16 18 19 19 19 19 19 17
42 43 45 44 39 32 22 18 19 22 22 24 26 21 12 4 3 3 5 3 2 3 1 4 5 5 2 3 3 5 6 5 2 5 6 5 7 5 1 3 5 3 4 7 9 10 6 3 5 5 8 10 8 8 9 11 12 6 3 4 4 6 5 4 2 2 5 8 7 10 9 9 9 7 5 10 15 19 18 17 19 20 21 20 20 19 18 18
42 44 45 41 37 29 16 14 25 27 23 21 17 9 2 1 1 4 4 3 3 1 3 3 4 6 5 4 3 4 5 4 2 6 9 9 8 9 8 6 6 6 6 9 6 5 7 8 5 3 7 11 9 8 7 7 9 8 5 5 4 3 3 5 4 2 7 8 5 8 8 7 9 7 8 12 16 19 19 19 22 24 23 22 22 21 18 16
42 44 44 40 35 26 17 20 28 26 21 17 9 2 4 2 4 5 5 4 1 3 5 4 7 8 5 3 3 5 5 3 3 3 9 11 9 11 12 8 8 8 5 6 5 3 4 6 7 7 6 8 11 9 7 7 7 9 8 6 6 5 4 6 5 3 6 6 4 6 6 4 6 5 10 14 16 20 21 21 22 23 24 25 24 21 18 17
42 43 42 39 29 17 16 24 28 23 17 11 2 2 2 5 4 3 5 5 2 5 6 6 10 8 4 2 3 4 2 5 6 3 5 9 8 9 10 9 9 7 3 3 4 5 6 6 8 12 6 7 12 11 9 7 6 9 7 6 7 6 5 5 4 4 5 6 4 2 4 5 5 6 11 15 17 19 20 21 21 20 21 23 20 18 18 18
41 42 38 33 22 13 17 27 28 17 7 2 1 3 5 6 3 1 2 3 4 5 9 9 7 4 3 3 3 3 4 3 5 5 4 7 9 8 9 9 10 7 4 3 3 4 9 8 6 9 7 9 12 11 9 7 5 7 6 6 9 7 6 4 4 5 3 3 4 2 3 5 5 5 7 13 16 17 19 20 19 18 17 16 13 15 17 17
41 41 35 28 18 15 22 30 26 9 3 1 1 5 5 3 1 0 1 3 4 6 10 9 3 3 4 3 3 7 8 5 2 2 4 5 7 9 9 7 10 11 7 6 4 2 5 8 4 4 5 10 12 9 9 9 6 3 5 8 8 6 7 6 5 4 2 3 5 3 4 4 3 5 5 9 13 14 17 18 19 18 16 14 13 14 16 17
37 35 28 22 17 20 29 34 22 5 4 2 3 5 3 2 1 0 1 2 4 6 7 4 3 2 3 3 3 7 10 6 5 4 1 3 4 7 9 7 9 14 12 8 5 3 5 6 4 8 9 11 10 8 8 10 9 5 5 8 4 2 6 5 3 5 5 6 6 2 5 5 3 5 4 6 10 12 14 16 18 17 14 14 15 15 18 19
29 26 18 13 18 27 35 34 16 5 5 0 5 4 2 2 3 3 2 3 3 4 3 1 2 1 2 3 3 6 10 5 4 7 3 2 2 1 2 4 6 10 15 14 7 3 6 6 6 9 13 10 7 7 7 7 9 7 5 7 6 4 6 4 4 6 6 6 6 3 5 5 5 5 4 7 10 11 12 13 15 16 14 14 15 17 19 19
21 16 7 7 23 34 36 28 9 5 3 1 5 3 2 2 4 6 5 5 2 2 2 2 2 2 3 3 4 6 6 3 4 5 2 2 2 5 9 5 4 7 9 15 10 4 5 5 6 6 10 8 5 6 7 8 10 6 2 5 5 5 6 6 5 4 4 5 5 3 4 5 6 6 7 10 11 12 13 12 13 15 15 14 14 16 17 17
13 6 3 10 28 36 35 20 1 5 1 2 3 3 3 3 4 5 6 5 1 1 2 2 2 3 3 4 6 5 3 4 4 2 1 4 2 5 11 10 7 12 13 9 10 8 4 4 6 5 4 7 4 5 10 10 9 6 5 6 6 3 3 5 4 3 4 5 3 3 6 7 5 5 9 11 11 12 13 13 14 16 17 16 16 17 16 16
7 2 3 17 31 34 29 11 3 2 2 2 2 4 5 5 5 6 7 6 3 1 3 4 5 5 4 5 5 4 3 4 4 1 2 3 3 3 8 11 10 11 10 7 4 6 3 4 6 6 5 6 5 7 11 13 11 9 8 7 8 5 3 4 5 2 3 5 5 5 8 9 5 5 8 10 11 12 13 14 14 15 17 17 18 18 17 17
3 2 9 22 30 27 17 4 0 3 0 2 5 5 6 6 6 7 6 5 4 2 3 3 4 4 2 2 3 4 4 2 3 2 1 1 5 4 8 14 13 10 7 4 3 5 4 2 8 9 8 7 8 9 11 13 13 11 9 7 7 5 5 6 8 4 3 3 2 3 6 8 5 7 8 9 10 10 11 12 12 12 14 16 17 17 16 16
2 6 15 22 25 19 8 2 3 5 3 6 8 7 6 5 5 6 4 5 5 3 3 2 1 3 3 2 3 4 5 2 0 2 3 3 5 7 10 16 14 11 8 4 5 8 8 2 5 6 6 5 6 7 5 7 9 9 9 9 8 8 8 7 6 5 4 4 3 1 6 6 4 6 8 6 7 9 8 9 11 11 10 12 15 15 14 14
3 6 9 15 22 15 4 3 6 5 6 10 9 8 7 4 6 7 6 6 4 2 3 3 2 4 3 2 2 2 4 2 1 5 5 4 3 6 12 16 14 9 7 6 6 6 5 3 1 2 5 6 5 6 6 5 6 4 6 10 12 14 12 6 3 4 4 6 7 5 7 6 5 4 7 4 4 7 7 7 10 10 9 10 12 11 12 13
4 3 3 9 17 10 3 3 6 5 7 10 9 9 8 6 6 7 7 6 4 3 4 3 4 5 3 2 2 1 3 1 1 5 5 4 4 5 10 14 11 7 7 11 10 4 3 3 2 3 7 9 6 6 7 5 4 3 5 10 14 17 17 10 4 4 6 5 7 7 6 5 7 4 6 6 6 7 8 6 7 9 10 11 10 9 10 10
3 3 2 5 7 4 2 3 6 6 7 9 7 6 8 8 7 7 6 4 4 7 5 3 4 4 2 5 4 2 2 3 3 4 5 5 4 2 8 11 9 8 14 17 14 6 2 2 4 5 5 6 5 6 6 6 8 9 11 11 12 16 18 13 7 7 6 4 6 8 6 3 6 6 5 7 8 9 9 8 7 8 10 10 10 10 9 9
2 3 3 3 3 3 3 3 6 7 7 8 5 5 8 10 7 6 4 3 6 7 4 3 4 5 4 5 4 2 3 4 4 4 4 4 3 4 7 8 6 11 17 16 12 6 2 2 5 5 6 6 6 11 11 8 11 14 14 14 13 13 15 16 13 9 9 7 9 8 8 6 7 7 7 8 8 9 10 10 9 9 9 9 9 10 10 11
1 2 2 2 1 3 4 5 7 8 9 9 5 5 9 9 7 6 4 5 7 5 2 3 6 8 7 5 2 2 4 4 2 1 3 4 5 7 7 4 4 11 16 11 7 6 2 3 4 6 11 12 9 12 13 11 12 12 14 17 16 13 15 18 17 11 11 11 11 8 11 11 8 8 8 9 10 11 10 9 7 6 7 8 8 9 11 12
1 2 2 1 1 3 6 8 9 9 8 8 5 4 7 8 8 8 6 5 7 5 3 3 5 8 9 6 2 1 2 3 2 2 3 5 6 6 5 3 2 9 12 9 6 5 2 4 5 8 12 14 13 12 11 10 11 11 12 17 17 16 17 18 16 13 14 15 11 9 12 12 9 10 11 11 11 9 5 4 6 6 7 8 9 10 12 13
1 1 2 2 2 5 6 6 6 6 6 6 4 3 5 7 8 9 7 5 6 6 4 3 6 9 9 7 4 3 4 4 5 4 3 4 5 4 2 2 3 7 9 7 5 4 2 4 8 9 9 10 11 10 10 9 10 12 13 13 16 19 19 19 17 13 11 12 10 8 10 9 8 8 10 11 9 5 3 5 7 9 8 8 8 10 12 13
4 3 2 2 4 4 4 3 3 4 4 3 3 4 5 6 7 7 7 5 6 5 5 6 8 8 7 7 6 8 8 6 7 7 5 5 4 3 2 3 5 7 6 4 4 3 2 3 7 7 5 7 7 8 13 15 10 10 14 15 16 17 17 16 14 11 11 12 11 9 8 7 8 8 8 9 7 5 7 8 7 8 7 8 9 11 11 12
4 3 2 1 3 3 2 3 3 3 3 2 3 6 6 7 7 5 4 4 4 4 6 8 8 6 6 9 8 9 9 8 8 8 6 6 7 6 6 7 7 6 4 4 4 2 2 2 5 5 4 6 8 10 13 13 8 8 15 17 16 14 13 12 10 10 12 13 11 11 10 9 10 8 6 8 8 8 10 8 7 7 6 6 9 10 12 13
Wind_Direction
350 347 347 347 346 345 345 347 349 348 347 346 344 342 341 343 341 341 340 339 339 338 337 333 330 327 324 324 324 323 320 316 309 297 250 261 266 259 254 244 235 211 198 175 160 155 153 170 174 172 173 181 199 188 191 212 197 181 187 197 247 242 229 214 208 186 141 151 155 155 152 142 147 154 120 115 122 136 145 132 127 97 92 121 128 141 147 150
349 346 345 345 344 343 345 348 349 348 346 344 342 341 341 342 339 339 338 338 338 336 335 332 329 326 323 326 325 324 323 314 305 280 263 273 276 263 254 240 225 202 181 167 163 161 159 174 174 171 176 185 196 185 181 193 192 200 190 194 234 224 221 212 202 183 125 147 161 160 160 149 145 147 144 138 140 144 135 121 119 109 111 119 132 144 151 154
347 345 343 343 344 346 349 350 349 347 346 343 340 340 342 340 338 337 336 336 336 336 334 329 327 325 323 325 325 327 323 316 305 269 272 290 288 257 237 225 218 209 202 187 177 176 172 169 169 169 177 200 203 196 197 191 187 202 204 231 245 234 249 258 233 220 119 143 160 162 161 146 143 148 155 145 147 160 154 147 145 142 140 137 144 149 155 159
346 343 342 344 344 346 347 345 344 344 343 340 339 340 340 338 337 335 334 334 334 334 332 328 327 323 322 326 327 326 321 320 280 256 288 309 301 256 205 202 207 206 208 202 189 181 172 161 165 173 180 211 225 218 221 212 187 189 201 225 242 227 258 266 244 227 130 151 162 160 150 145 151 152 155 144 144 177 190 177 165 157 153 148 153 156 159 161
344 342 343 342 341 341 339 336 337 339 339 337 337 338 338 336 335 334 333 332 332 332 330 327 325 322 323 327 327 322 329 342 283 280 334 324 302 215 183 183 190 194 191 188 182 172 167 159 164 180 194 218 214 225 233 220 210 227 222 229 248 259 268 271 199 144 170 160 160 162 156 154 157 158 162 155 157 188 192 190 171 156 156 155 158 159 162 163
344 341 341 339 338 337 334 334 334 336 337 336 337 337 336 334 332 331 330 330 329 329 328 324 323 322 320 327 345 324 301 270 291 305 8 351 327 172 168 168 174 180 178 176 168 162 167 163 169 184 200 219 212 222 231 210 210 248 252 243 252 259 263 272 257 156 151 160 171 173 164 151 158 172 175 171 177 187 174 169 163 156 156 154 157 160 165 168
343 341 340 339 339 338 338 338 337 337 337 336 337 335 334 332 330 329 328 327 327 327 325 321 321 321 318 339 55 12 99 250 275 280 280 310 299 170 160 165 170 172 174 171 161 165 176 176 186 188 195 213 220 228 232 213 211 236 261 263 260 258 258 268 272 258 141 178 191 167 153 158 170 174 178 191 189 152 152 151 153 152 152 153 158 164 168 170
344 342 341 341 341 341 341 342 340 339 337 336 335 333 332 329 328 326 326 324 323 324 321 317 319 317 318 359 104 342 191 250 271 289 283 280 273 186 162 164 170 172 174 176 175 172 177 190 197 186 199 213 217 228 217 213 227 233 251 264 270 262 259 265 270 261 162 189 196 161 167 176 181 164 169 196 151 139 143 143 148 148 153 158 164 167 168 170
343 342 342 343 343 341 341 341 341 339 338 337 334 332 329 327 326 324 323 321 319 320 315 312 312 305 299 307 99 306 260 250 276 312 290 257 249 205 173 169 176 177 177 186 187 176 174 196 204 195 208 224 240 252 196 190 229 229 241 263 271 266 264 263 266 254 177 178 177 172 184 185 180 146 158 187 143 141 140 143 150 152 159 164 168 169 169 172
342 342 343 344 344 343 343 343 341 340 338 336 333 331 327 325 324 322 321 317 315 313 308 305 297 260 216 220 134 250 256 241 314 333 273 218 211 196 181 181 182 179 179 188 189 182 185 200 200 207 272 280 248 250 212 206 235 229 239 257 258 264 269 263 268 260 188 171 175 182 191 185 172 153 167 175 145 143 142 149 156 158 166 167 170 173 171 176
341 341 341 343 344 344 344 342 341 340 338 336 333 330 327 324 322 320 319 314 310 306 298 287 255 195 193 202 153 229 244 198 269 36 61 180 201 193 189 192 188 183 181 181 193 195 201 207 180 178 256 264 256 266 246 230 252 261 254 262 258 260 266 263 266 258 198 178 186 177 174 167 179 187 183 165 153 150 149 156 162 165 171 169 171 173 172 179
341 341 341 342 343 343 343 342 342 340 337 335 332 330 326 324 322 319 314 308 304 299 281 249 210 179 171 183 218 234 236 196 207 37 34 328 223 209 202 199 197 196 189 175 200 205 207 208 177 185 216 213 252 265 263 245 250 264 258 264 268 266 262 258 262 256 213 187 181 149 123 164 196 210 180 161 156 155 154 160 165 168 172 171 172 172 175 179
341 341 342 343 344 345 344 342 342 340 338 335 331 329 327 326 323 314 307 302 296 283 238 199 180 164 157 229 236 242 248 243 252 276 279 278 261 233 219 210 208 207 201 194 207 211 210 206 191 208 228 221 226 258 300 310 293 275 262 245 274 304 273 247 246 257 238 180 157 147 156 197 208 213 172 161 158 154 157 164 167 170 172 174 174 174 179 180
342 341 342 344 346 345 344 343 342 341 339 336 331 329 329 328 321 312 305 297 285 243 198 175 165 153 155 251 261 264 260 263 268 267 263 257 237 227 224 218 215 211 209 210 216 219 212 205 199 217 248 239 254 320 315 314 311 282 270 241 255 274 272 257 231 245 244 183 156 170 209 205 214 204 171 166 162 158 162 168 169 172 174 176 177 176 181 184
343 342 344 346 346 345 344 343 342 341 339 336 332 331 332 328 321 322 318 292 236 168 158 149 159 151 92 271 277 280 255 257 258 250 245 237 217 213 215 212 217 214 212 216 223 231 211 195 192 219 244 228 242 295 299 308 304 265 251 264 270 220 266 285 260 205 221 202 161 178 217 217 213 189 172 170 167 163 164 169 171 175 176 178 180 177 182 188
344 344 346 347 347 345 344 343 342 342 340 337 334 334 335 331 338 2 27 103 122 133 133 140 169 170 284 277 289 282 232 233 244 245 241 229 214 215 211 204 215 213 213 223 228 241 204 174 172 213 210 209 203 236 284 302 291 283 216 245 253 225 268 298 293 212 204 193 174 186 194 222 209 174 174 173 171 167 165 171 173 176 179 179 182 180 181 185
344 345 346 347 346 345 344 343 343 343 340 338 337 338 343 357 28 70 89 98 108 121 117 130 167 172 266 269 287 273 245 237 242 252 245 229 216 212 202 187 207 201 205 226 229 238 200 168 185 206 194 208 178 163 240 256 252 277 240 241 248 230 255 280 302 282 195 174 187 193 181 200 181 163 174 177 173 170 169 174 176 178 181 182 183 182 183 185
344 344 346 346 345 345 344 342 343 344 340 339 343 345 16 49 77 98 97 98 101 114 99 62 150 168 267 255 273 284 293 274 268 271 249 229 213 206 192 180 197 174 170 231 225 206 202 192 194 198 194 200 183 175 214 233 217 225 227 244 272 256 257 248 275 304 177 177 190 186 189 210 171 161 175 180 175 175 177 178 178 179 181 182 184 185 186 189
343 344 346 345 344 344 343 341 343 343 339 342 350 359 57 44 96 110 95 99 88 138 228 199 169 197 278 250 253 286 303 304 297 280 230 206 200 199 194 192 182 146 144 186 218 197 187 192 196 204 212 202 202 204 217 238 231 220 210 212 240 254 263 242 253 281 196 194 202 190 197 192 167 171 178 180 179 180 182 179 179 182 182 184 187 189 189 193
343 343 344 344 344 343 341 340 342 343 342 348 352 5 46 15 23 330 338 295 261 244 249 234 207 239 279 279 281 315 311 299 284 266 197 184 174 173 191 188 154 164 177 176 204 201 165 197 218 209 214 206 207 213 218 237 242 241 235 236 241 247 266 252 248 277 230 189 219 206 197 186 176 179 180 177 180 183 183 184 185 185 186 187 189 192 192 197
341 341 342 343 343 342 340 339 341 343 347 352 355 12 47 21 8 322 320 294 258 238 248 244 225 235 252 262 269 1 350 315 280 279 223 189 157 149 185 179 166 195 196 179 188 182 166 213 227 207 202 197 202 210 209 227 239 245 240 252 261 238 261 267 247 274 259 177 240 215 184 197 187 180 179 175 180 187 187 186 189 189 190 191 191 193 195 199
339 340 341 341 342 341 338 338 341 340 347 355 0 33 41 13 340 317 309 289 265 235 240 244 238 240 241 249 255 263 339 281 282 286 236 181 161 164 178 176 186 195 182 175 173 174 205 227 221 192 183 184 212 216 202 226 236 242 236 244 265 240 264 285 255 247 230 188 248 209 182 214 198 180 179 179 185 191 191 190 189 188 188 192 194 195 196 196
339 341 342 342 342 340 338 339 339 338 346 347 340 299 348 344 339 334 314 273 277 235 223 235 235 237 236 243 241 214 217 226 248 274 210 166 174 178 169 178 188 179 172 186 191 191 211 230 202 173 170 186 225 235 213 241 243 237 233 225 255 238 189 275 273 294 264 218 217 184 181 218 191 186 189 190 192 191 194 197 193 189 189 193 195 194 193 191
341 343 343 342 342 340 338 338 340 345 342 339 313 300 342 339 343 349 337 253 285 240 218 230 223 230 232 224 194 182 208 203 195 250 209 168 169 157 170 181 173 177 193 195 201 208 222 231 173 165 175 186 216 237 221 239 252 247 237 223 248 244 197 234 282 349 321 282 215 131 118 177 166 191 205 201 202 199 197 199 201 203 200 199 197 195 194 192
341 343 343 342 343 340 338 338 351 344 337 338 337 334 338 339 344 348 343 256 290 266 232 232 218 232 216 183 171 174 198 211 200 224 192 169 176 155 173 179 166 194 198 189 201 220 232 223 155 170 191 190 208 233 219 210 242 262 246 228 241 248 230 246 315 0 335 306 298 134 147 264 194 193 205 197 200 208 203 199 205 208 205 206 204 200 199 196
340 342 342 343 342 341 343 345 338 336 332 331 337 332 335 337 340 339 336 327 294 259 194 192 185 198 177 159 164 145 126 233 212 209 192 183 188 168 169 170 172 200 186 175 204 226 218 188 162 180 194 196 208 228 218 196 219 257 245 234 247 243 226 247 276 334 285 271 277 180 182 255 212 197 205 196 198 205 201 203 209 207 203 207 206 203 200 198
338 340 340 341 342 343 347 321 322 332 327 311 325 329 331 332 335 335 331 349 301 212 161 169 184 179 168 162 160 141 158 213 180 202 200 191 186 160 175 180 168 192 164 148 220 212 172 177 188 191 189 199 211 222 210 181 206 245 237 254 274 255 222 232 208 213 238 258 290 255 177 227 232 206 202 194 201 207 203 206 210 208 208 208 208 206 202 200
336 338 339 338 339 342 338 309 318 320 303 315 323 325 327 330 332 335 129 323 284 173 150 192 169 166 155 160 168 172 223 154 123 212 190 182 186 154 188 198 175 177 164 168 213 198 163 182 195 193 196 211 211 213 194 176 216 244 224 236 266 260 242 215 185 218 237 249 273 244 175 207 271 238 203 194 198 205 207 210 209 208 210 208 209 208 204 203
334 336 339 336 336 340 339 313 300 300 313 323 323 321 323 324 328 86 121 263 262 337 144 143 118 141 110 155 189 223 285 110 38 201 156 175 201 172 198 199 168 173 181 191 212 200 173 191 191 189 204 216 206 203 188 190 220 236 213 242 269 271 257 200 184 214 216 215 247 237 187 204 264 258 193 192 198 204 208 211 210 209 209 208 208 209 207 205
333 333 337 337 335 338 334 314 302 317 328 323 317 318 319 318 356 118 219 234 272 298 191 89 38 53 105 144 208 249 263 305 332 118 131 168 193 193 232 146 135 166 191 209 219 216 214 195 184 191 208 205 188 196 201 206 218 209 184 241 269 280 289 300 171 162 198 235 239 233 200 189 247 254 186 188 199 202 204 210 213 212 211 210 210 210 207 204
333 332 334 336 334 332 325 313 323 330 322 318 320 319 319 330 96 161 223 237 305 282 44 43 24 19 43 172 238 250 244 294 334 140 146 155 167 185 210 123 132 157 193 226 228 220 235 228 193 199 203 193 182 200 214 212 214 210 167 190 244 284 308 308 307 128 221 242 232 230 211 191 229 250 206 199 199 198 201 205 208 210 210 211 211 210 206 204
333 331 331 333 334 327 310 313 332 330 321 325 327 325 4 105 232 216 238 329 340 317 17 12 355 353 314 276 263 220 223 269 244 169 168 170 177 190 195 183 168 168 201 221 216 205 223 227 228 237 203 189 184 200 217 214 207 206 186 159 182 249 264 244 249 227 235 248 228 212 204 205 234 236 207 203 198 199 204 205 207 207 207 209 210 209 205 203
333 332 330 333 333 324 319 335 338 331 323 324 321 350 88 180 237 211 231 287 18 42 17 344 324 312 277 296 276 203 194 225 231 201 185 181 183 197 202 200 183 178 190 200 187 170 228 239 228 231 227 192 185 188 204 213 201 198 193 173 180 203 215 220 234 254 251 260 244 196 180 221 264 238 204 201 200 201 203 208 210 207 206 208 208 205 203 202
333 332 329 332 335 334 346 349 341 328 315 315 321 97 137 214 242 209 225 262 333 29 16 341 320 301 250 256 246 185 181 229 209 186 192 184 186 201 205 203 196 184 123 141 182 183 210 244 218 210 204 175 193 202 193 178 184 205 192 168 195 202 191 203 209 225 248 263 263 200 170 201 225 224 202 195 202 203 203 209 210 209 210 210 207 202 201 203
333 331 330 332 336 350 357 349 341 330 299 307 91 173 203 212 246 298 235 299 335 3 349 326 311 314 322 281 279 26 23 263 206 188 192 185 193 201 199 200 197 183 143 171 213 185 207 239 234 213 195 171 196 209 180 153 187 210 163 163 211 198 172 214 210 188 205 266 256 215 207 215 217 246 218 196 202 204 205 209 208 212 215 208 206 203 202 206
334 333 332 330 334 351 350 345 342 325 215 88 147 206 229 226 216 303 1 354 336 335 334 327 340 16 344 306 329 14 12 350 333 228 207 190 204 202 198 203 193 191 186 188 209 157 195 239 229 184 211 203 200 195 175 175 189 180 157 192 208 173 175 224 239 212 195 263 254 205 236 271 276 276 249 198 202 205 205 209 209 213 209 199 202 203 204 207
336 332 327 323 340 352 344 342 340 284 184 86 203 216 267 262 219 291 10 13 333 328 344 351 355 350 344 328 337 10 2 348 9 3 280 205 222 206 206 215 196 198 197 192 224 190 176 257 238 179 217 229 202 190 198 189 168 150 189 197 160 138 205 205 219 237 233 250 266 218 228 247 220 254 256 188 200 210 210 211 212 213 204 198 203 203 205 208
333 323 313 319 346 346 340 342 337 216 170 247 239 248 283 251 312 321 326 8 330 318 352 342 273 293 25 352 315 355 357 344 12 5 325 247 304 336 249 236 209 210 204 195 220 219 180 252 266 196 207 222 186 187 231 225 201 203 197 172 143 178 217 187 185 222 216 238 272 277 252 234 202 224 224 192 202 209 211 213 215 215 205 202 207 204 206 208
335 322 302 340 346 342 341 342 333 183 157 212 227 254 270 254 293 291 299 332 312 270 299 230 227 326 359 340 308 333 347 321 336 352 326 292 310 37 24 352 301 303 251 210 206 204 176 218 257 217 195 199 178 180 211 230 229 229 159 166 179 179 193 191 186 193 192 225 260 275 264 238 216 206 188 195 208 206 207 209 213 217 210 206 208 206 207 206
342 317 244 339 344 343 344 344 349 162 200 219 207 252 288 291 286 280 294 312 288 202 296 283 307 328 322 317 312 318 319 295 308 307 286 327 350 64 29 5 332 327 314 265 220 206 185 199 240 261 205 194 191 188 200 208 215 215 192 195 203 190 185 201 199 169 169 191 209 234 254 250 240 205 183 192 206 206 205 206 210 214 210 207 208 207 205 203
331 282 274 339 346 345 345 353 142 170 244 227 253 263 280 290 281 283 291 303 312 226 227 261 277 271 278 307 312 328 341 314 313 273 221 324 10 50 14 359 337 320 327 331 266 226 222 195 216 243 230 206 211 201 200 204 203 202 204 203 202 189 138 177 220 217 169 188 185 201 250 259 247 202 188 192 202 207 206 206 213 216 210 209 210 208 205 201
304 264 302 332 343 342 347 19 93 339 306 297 320 302 303 305 291 293 300 328 345 287 235 238 262 270 280 314 338 2 358 316 295 307 234 26 58 64 0 354 345 328 337 355 309 308 322 219 211 232 231 215 220 214 204 208 206 202 206 202 194 181 145 179 218 216 199 227 173 167 253 263 238 194 191 196 200 209 211 204 211 220 215 213 213 210 206 203
272 292 300 325 339 337 343 41 359 7 10 334 336 331 328 331 332 337 354 7 358 335 323 318 322 1 28 29 5 358 353 337 344 26 10 9 56 65 12 356 351 348 359 1 330 343 348 290 220 246 260 255 253 254 242 213 200 203 212 199 189 196 192 197 203 181 202 221 148 182 255 261 248 199 195 214 211 208 217 207 208 222 223 221 220 214 208 205
295 289 292 330 340 337 348 28 5 6 346 339 341 336 338 351 353 354 353 341 334 319 319 324 357 6 4 0 2 14 5 350 63 41 17 340 7 39 18 359 351 355 7 354 340 348 341 307 281 243 248 251 261 266 262 225 199 207 215 204 203 204 198 198 168 153 220 209 165 190 240 249 278 230 190 224 232 208 221 216 209 219 224 226 226 218 211 207
310 282 241 325 337 346 42 26 6 357 342 344 340 337 348 350 345 346 327 309 320 343 321 313 328 318 308 5 8 13 19 349 21 16 358 331 335 14 15 355 341 342 341 342 343 324 249 260 259 200 220 230 229 231 224 199 199 230 216 209 210 205 199 197 176 184 227 216 170 188 222 251 289 267 188 205 221 214 232 236 221 225 226 226 228 221 214 208
320 312 285 322 335 358 31 9 12 1 347 347 336 331 343 334 327 335 318 305 0 4 335 294 310 309 332 32 8 331 25 27 357 339 319 326 333 356 3 343 322 332 341 347 352 331 241 246 259 230 228 240 257 274 250 183 188 216 218 215 216 212 205 197 195 201 198 195 205 203 188 210 271 261 227 240 236 223 233 234 222 227 227 223 222 218 209 205
289 291 314 342 336 342 351 9 17 1 345 345 329 309 325 323 322 335 339 356 4 358 329 307 9 20 18 27 7 317 359 353 314 297 299 325 321 316 340 325 308 348 352 351 354 347 341 318 287 271 276 273 277 289 281 236 211 212 211 216 221 217 208 205 215 203 155 176 229 212 171 192 241 249 246 254 246 236 238 233 223 225 227 222 221 218 207 204
261 281 323 12 345 331 336 335 342 339 333 333 316 295 316 323 330 343 355 353 346 359 17 349 13 19 2 6 24 317 341 334 294 321 347 336 323 325 336 314 316 2 359 349 355 2 319 260 283 311 313 307 298 290 283 264 242 220 205 211 217 214 210 214 219 197 165 198 228 203 183 201 223 233 233 237 238 236 236 236 239 241 233 228 223 220 215 209
267 277 303 18 7 302 299 301 314 323 323 325 312 298 319 328 337 342 349 347 333 345 24 347 343 355 345 341 351 291 336 330 304 354 352 324 325 334 332 311 342 10 359 341 341 356 306 266 306 321 315 311 305 295 285 268 255 243 220 209 209 213 215 217 218 202 196 216 221 192 194 207 212 214 217 224 232 233 226 235 263 262 235 223 217 214 218 215
265 289 310 339 298 277 274 282 305 317 313 311 299 291 318 329 337 340 336 328 309 315 352 354 331 337 330 323 320 283 267 266 267 284 310 310 323 335 311 307 354 359 348 330 325 354 3 302 309 320 318 306 303 313 321 302 263 250 244 224 211 213 216 218 216 203 204 223 225 199 199 220 241 227 219 229 238 253 257 230 244 251 230 211 214 219 221 219
252 272 282 298 292 282 279 282 298 305 299 300 305 318 330 327 330 333 315 282 253 276 328 340 327 328 320 311 302 280 276 269 258 263 266 266 279 287 273 294 327 334 334 314 304 332 2 298 304 323 325 297 303 336 334 322 304 259 245 236 220 212 214 220 214 196 193 204 215 219 213 230 250 236 233 252 255 256 254 233 232 251 237 202 206 220 225 225
255 272 237 247 294 289 282 286 275 276 288 309 321 321 320 309 316 333 317 286 267 293 323 321 312 316 312 301 287 276 285 287 272 269 263 248 248 253 258 263 270 273 274 285 290 270 218 271 305 324 317 289 300 320 320 318 312 257 234 227 224 219 214 216 216 210 199 185 196 221 220 221 228 211 208 244 244 238 244 236 230 253 259 227 220 222 221 222